Home > Weather > Jefferson City > Past weeks

Flag for USA Past Weather in Jefferson City, Missouri, USA — Yesterday and Last 2 Weeks

Now
82 °F

Sunny.


Feels Like: 88 °F
Forecast: 71 / 82 °F
Wind: 8 mph from Southeast

Location: Jefferson City Memorial Airport

Current Time: Aug 26, 2016 at 6:37:55 PM

Latest Report: Aug 26, 2016 at 5:53 PM


Visibility: 10 mi

Pressure: 29.96 "Hg

Humidity: 77%

Dew Point: 74 °F

Location of Jefferson CityLocation

Past Weather in Jefferson City — Graph

°F

Jefferson City Temperature Yesterday

Maximum temperature yesterday: 89 °F (at 3:53 PM)
Minimum temperature yesterday: 69 °F (at 5:53 AM)
Average temperature yesterday: 78 °F

High & Low Weather Summary for the Past Weeks

 TemperatureHumidityPressure
High92 °F (Aug 11, 4:53 PM)100% (Aug 12, 9:53 PM)30.16 "Hg (Aug 12, 9:53 PM)
Low56 °F (Aug 22, 5:53 AM)42% (Aug 21, 4:53 PM)29.70 "Hg (Aug 12, 3:53 PM)
Average75 °F80%29.96 "Hg
* Reported Aug 11 4:53 PM — Aug 26 4:53 PM, Jefferson City, Weather by CustomWeather, © 2016

Note: Actual official high and low records may vary slightly from our data, if they occured in-between our weather recording intervals... More about our weather records

Advertising

Jefferson City Weather History for the Previous 24 Hours

Scroll right to see more
 ConditionsComfort  
Time TempWeatherWind HumidityBarometerVisibility
4:53 PM
Fri, Aug 26
81 °FSunny.6 mph79%29.96 "Hg10 mi
3:53 PM80 °FPassing clouds.5 mph79%29.99 "Hg10 mi
2:53 PM79 °FBroken clouds.6 mph84%30.01 "Hg10 mi
1:53 PM80 °FSunny.5 mph76%30.03 "Hg10 mi
12:53 PM81 °FScattered clouds.No wind74%30.04 "Hg10 mi
11:53 AM81 °FPassing clouds.No wind69%30.06 "Hg10 mi
10:53 AM81 °FPartly sunny.No wind72%30.06 "Hg10 mi
9:53 AM77 °FPartly sunny.No wind85%30.07 "Hg10 mi
8:53 AM75 °FMostly cloudy.3 mph90%30.06 "Hg9 mi
7:53 AM74 °FFog.5 mph94%30.06 "Hg5 mi
6:53 AM72 °FFog.3 mph97%30.05 "Hg6 mi
5:53 AM72 °FFog.No wind97%30.03 "Hg6 mi
4:53 AM72 °FFog.No wind97%30.02 "Hg6 mi
3:53 AM73 °FClear.3 mph97%30.02 "Hg8 mi
2:53 AM73 °FClear.No wind94%30.01 "Hg7 mi
1:53 AM73 °FPassing clouds.3 mph97%30.01 "Hg8 mi
12:53 AM75 °FPassing clouds.No wind90%30.03 "Hg10 mi
11:53 PM
Thu, Aug 25
74 °FClear.No wind94%30.03 "Hg10 mi
10:53 PM75 °FClear.5 mph90%30.02 "Hg10 mi
9:53 PM78 °FClear.No wind82%30.01 "Hg10 mi
8:53 PM78 °FPassing clouds.7 mph82%30.00 "Hg10 mi
7:53 PM80 °FPassing clouds.7 mph67%29.97 "Hg10 mi
6:53 PM80 °FSunny.3 mph81%29.96 "Hg10 mi
Weather by CustomWeather, © 2016

See weather overviewHow to use our weather pages